Killeen-Fort Hood Regional Airport

Airport
ICAO code: 
KGRK
Summary
ICAO Region: 
NAM
Territory: 
Location: 
Killeen, Texas,
Elevation: 
1015 ft
Coordinates: 
Aerial View: 
31° 3' 42.888" N, 97° 49' 16.559" W
Airport WX: 
Cumulonimbus
Metar
Observation
KGRK 240711Z AUTO 22006KT 10SM BKN046 OVC055 11/02 A3003 RMK AO2 SLP167
Station
Fort Hood, Robert Gray AAF Ft Hood
Date/Time
2022-01-24 07:11:00
Wind direction
220°
Wind speed
06 kts
Lowest cloud amount
broken clouds
Temperature
11°C
Dew point
2°C
Humidity
53%
Weather condition
n/a

Description

Killeen–Fort Hood Regional Airport, also known as Robert Gray Army Airfield, is a small military/commercial joint-use airport located inside of the Fort Hood Military Reservation, 11 km southwest of the central business district of Killeen, in Bell County, Texas.

Climatology

Humid “subtropical” climate (Köppen climate classification Cfa) - characterized by hot, humid summers and cool winters. Significant amounts of precipitation occur in all seasons in most areas. Winter rainfall (and sometimes snowfall) is associated with large storms that the westerlies steer from west to east. Most summer rainfall occurs during thunderstorms and occasional tropical storms (hurricanes).

Runways

Designator Length Width Surface Rops
15/33 3048 61 PEM Yes/Yes
Airport map: 
Aerial View: 

SKYbrary Partners:

Safety knowledge contributed by: